This is the latest recevied weather packets stored in our database for station/object KD9WYV. If no packets are shown the sender has not sent any weather packets the latest 1 day(s).
| Time | Temp. | Humidity | Pressure | Rain* | Wind** | Luminosity | Snow |
|---|---|---|---|---|---|---|---|
| 1778036632 | 8.33° C | 97% | 1010 hPa | 0 mm | - | 0 W/m² | - |
| 1778036328 | 8.33° C | 97% | 1009.6 hPa | 0 mm | - | 0 W/m² | - |
| 1778035722 | 8.33° C | 97% | 1009.6 hPa | 0 mm | - | 0 W/m² | - |
| 1778035115 | 8.33° C | 97% | 1009.6 hPa | 7.11 mm | - | 0 W/m² | - |
| 1778034508 | 8.33° C | 97% | 1009.5 hPa | 4.83 mm | - | 0 W/m² | - |
| 1778034206 | 8.33° C | 97% | 1010.3 hPa | 1.27 mm | - | 0 W/m² | - |
| 1778033600 | 8.33° C | 97% | 1010.1 hPa | 0 mm | - | 0 W/m² | - |
| 1778033297 | 8.33° C | 97% | 1009.5 hPa | 0 mm | - | 0 W/m² | - |
| 1778032995 | 8.33° C | 97% | 1009.2 hPa | 1.78 mm | - | 0 W/m² | - |
| 1778032693 | 8.33° C | 97% | 1009.2 hPa | 1.78 mm | - | 0 W/m² | - |
| 1778032390 | 8.33° C | 97% | 1008.9 hPa | 1.27 mm | - | 0 W/m² | - |
| 1778030874 | 8.33° C | 97% | 1008.9 hPa | 1.78 mm | - | 0 W/m² | - |
| 1778030571 | 8.33° C | 97% | 1008.7 hPa | 3.05 mm | - | 0 W/m² | - |
| 1778030268 | 8.33° C | 97% | 1008.7 hPa | 3.05 mm | - | 0 W/m² | - |
| 1778029663 | 7.78° C | 97% | 1009 hPa | 1.27 mm | - | 0 W/m² | - |
| 1778029057 | 7.78° C | 96% | 1009.1 hPa | 1.78 mm | - | 0 W/m² | - |
| 1778028449 | 7.78° C | 96% | 1009.3 hPa | 3.05 mm | - | 0 W/m² | - |
| 1778027843 | 7.78° C | 96% | 1009.2 hPa | 3.05 mm | - | 1 W/m² | - |
| 1778027540 | 7.78° C | 96% | 1009.2 hPa | 4.83 mm | - | 1 W/m² | - |
| 1778026932 | 7.78° C | 96% | 1009 hPa | 3.05 mm | - | 2 W/m² | - |
| 1778026628 | 7.78° C | 96% | 1008.9 hPa | 3.05 mm | - | 2 W/m² | - |
| 1778025115 | 8.33° C | 96% | 1009.1 hPa | 4.83 mm | - | 6 W/m² | - |
| 1778023298 | 8.33° C | 96% | 1009.4 hPa | 1.27 mm | - | 14 W/m² | - |
| 1778022087 | 8.33° C | 96% | 1009.5 hPa | 1.27 mm | - | 31 W/m² | - |
| 1778021480 | 8.89° C | 96% | 1009.5 hPa | 1.78 mm | - | 45 W/m² | - |
* Rain latest hour (hover to see other rain measurements)
** Current wind speed in m/s (hover to see current wind gust speed)